Location: Chantarel
(45.1638°N, 1.7873°E)
Time: 20:49:04
(UTC+00:00)

Cosmos 1302 Rocket - Pass Details

Date: 03 March 2021
Orbit: 756 x 777 km, 74.0° (Epoch: 13 April)

Event Time Altitude Azimuth Distance (km) Brightness Sun altitude
Rises 18:06:59 0° 201° (SSW) 3,197 7.6 -5.0°
Reaches altitude 10° 18:09:20 10° 202° (SSW) 2,277 6.8 -5.4°
Maximum altitude 18:14:30 85° 291° (WNW) 767 4.1 -6.3°
Drops below altitude 10° 18:19:44 10° 20° (NNE) 2,301 6.3 -7.3°
Sets 18:22:07 0° 21° (NNE) 3,234 7.0 -7.7°
